SEEDS II (CO-66)

Last updated on Sun Jun 21 2026 00:03:20 GMT+0000 (Coordinated Universal Time)

1 32791U 08021J 26170.94270999 .00015827 00000+0 50132-3 0 9994 2 32791 97.7524 168.9721 0000692 347.0777 13.0446 15.32829868987716
UTC large
Height (km)
Speed (km/s)
/
Latitude / Longitude
Inclination (degrees)
Orbital Period (minutes)
Azimuth
Elevation
Range (km)
Doppler Factor

Next 0 passes for location: London (51.5072 / 0.1276)

No passes found over London.
SEEDS II (CO-66)